Tulsa, OK

11:16 PM CDT on July 25, 2017 (GMT -0500)
Tulsa International

Weather History for KTUL - October, 2011

Change the Weather History Date:

Thursday, October 27, 2011

  Actual Average Record
Temperature  
Mean Temperature 50 °F 58 °F  
Max Temperature 55 °F 70 °F 88 °F (1922)
Min Temperature 45 °F 47 °F 27 °F (1957)
Degree Days  
Heating Degree Days 15 8  
Month to date heating degree days 83 129  
Since 1 July heating degree days 106 153  
Cooling Degree Days 0 1  
Month to date cooling degree days 88 58  
Year to date cooling degree days 2725 2023  
Moisture  
Dew Point 42 °F    
Average Humidity 74    
Maximum Humidity 93    
Minimum Humidity 54    
Precipitation  
Precipitation 0.13 in 0.12 in 2.23 in (1918)
Month to date precipitation 1.87 3.43  
Year to date precipitation 25.17 35.17  
Sea Level Pressure  
Sea Level Pressure 30.09 in    
Wind  
Wind Speed 7 mph (North)    
Max Wind Speed 20 mph    
Max Gust Speed 26 mph    
Visibility 10 miles    
Events Rain    
T = Trace of Precipitation, MM = Missing Value Source: NWS Daily Summary

Daily Weather History Graph

Daily Weather History Graph

Search for Another Location

Airport or City:

Trip Planner

Search our weather history database for the weather conditions in past years. The results will help you decide how hot, cold, wet, or windy it might be!

Date:

Astronomy

Oct. 27, 2011 Rise Set
Actual Time 7:41 AM CDT 6:33 PM CDT
Civil Twilight 7:14 AM CDT 6:59 PM CDT
Nautical Twilight 6:44 AM CDT 7:29 PM CDT
Astronomical Twilight 6:14 AM CDT 7:59 PM CDT
Moon 8:42 AM CDT (10/27) 7:07 PM CDT (10/27)
Length of Visible Light 11h 44m
Length of Day
10h 51m
New Moon, 1% of the Moon is Illuminated
Oct 27
New Moon
Nov 2
First Quarter
Nov 10
Full
Nov 18
Last Quarter
Nov 25
New

Hourly Weather History & Observations

Time (CDT) Temp. Dew Point Humidity Pressure Visibility Wind Dir Wind Speed Gust Speed Precip Events Conditions
12:53 AM 54.0 °F 45.0 °F 72% 30.01 in 10.0 mi North 8.1 mph - N/A   Overcast
1:53 AM 53.1 °F 39.9 °F 61% 30.02 in 10.0 mi North 13.8 mph 23.0 mph N/A   Scattered Clouds
2:53 AM 53.1 °F 39.9 °F 61% 30.02 in 10.0 mi North 15.0 mph - N/A   Overcast
3:53 AM 52.0 °F 39.9 °F 63% 30.02 in 10.0 mi North 15.0 mph - N/A   Overcast
4:53 AM 52.0 °F 39.9 °F 63% 30.06 in 10.0 mi North 9.2 mph - N/A   Overcast
5:53 AM 48.2 °F 42.8 °F 82% 30.08 in 10.0 mi North 10.4 mph - N/A Rain Light Rain
6:53 AM 48.9 °F 42.1 °F 77% 30.05 in 10.0 mi North 10.4 mph - 0.03 in Rain Light Rain
7:53 AM 46.9 °F 44.1 °F 90% 30.10 in 5.0 mi NW 5.8 mph - 0.06 in Rain Light Rain
8:53 AM 48.0 °F 44.1 °F 86% 30.10 in 10.0 mi North 5.8 mph - 0.01 in   Overcast
9:53 AM 50.0 °F 43.0 °F 77% 30.10 in 10.0 mi NNE 6.9 mph - N/A   Overcast
10:53 AM 51.1 °F 44.1 °F 77% 30.14 in 10.0 mi North 5.8 mph - N/A   Mostly Cloudy
11:53 AM 51.1 °F 41.0 °F 68% 30.14 in 9.0 mi NE 6.9 mph - 0.00 in Rain Light Rain
12:53 PM 53.6 °F 41.0 °F 62% 30.10 in 10.0 mi NE 12.7 mph - N/A   Mostly Cloudy
1:53 PM 54.0 °F 39.9 °F 59% 30.08 in 10.0 mi NE 12.7 mph 17.3 mph N/A   Overcast
2:53 PM 55.0 °F 39.9 °F 57% 30.06 in 10.0 mi NE 8.1 mph - N/A   Overcast
3:53 PM 54.0 °F 37.9 °F 55% 30.08 in 10.0 mi NE 8.1 mph - N/A   Overcast
4:53 PM 54.0 °F 39.0 °F 57% 30.09 in 10.0 mi NE 4.6 mph - 0.00 in Rain Light Rain
5:53 PM 53.1 °F 39.9 °F 61% 30.10 in 10.0 mi North 3.5 mph - 0.00 in Rain Light Rain
6:53 PM 50.0 °F 41.0 °F 71% 30.12 in 10.0 mi NNE 5.8 mph - 0.00 in Rain Light Rain
7:53 PM 48.2 °F 44.6 °F 87% 30.13 in 10.0 mi ESE 4.6 mph - N/A   Overcast
8:53 PM 50.0 °F 44.1 °F 80% 30.14 in 10.0 mi Calm Calm - 0.00 in   Overcast
9:53 PM 48.9 °F 46.0 °F 90% 30.15 in 10.0 mi Calm Calm - N/A   Overcast
10:53 PM 48.0 °F 46.0 °F 93% 30.16 in 10.0 mi NNW 3.5 mph - N/A   Mostly Cloudy
11:53 PM 46.9 °F 45.0 °F 93% 30.17 in 10.0 mi WNW 3.5 mph - N/A   Mostly Cloudy